Home   Weather   USA   Washington DC   Past weeks
Flag for USA

Past Weather in Washington DC, USA — Yesterday and Last 2 Weeks

Currently: 55 °F. Mostly cloudy. (Weather station: Reagan National Airport, USA). See more current weather

Past Weather in Washington DC — Graph

°F

Washington DC Temperature Yesterday

Maximum temperature yesterday: 64 °F (at 5:52 pm)
Minimum temperature yesterday: 56 °F (at 12:29 am)
Average temperature yesterday: 60 °F

High & Low Weather Summary for the Past Weeks

 TemperatureHumidityPressure
High88 °F (Sep 19, 1:52 pm)97% (Oct 2, 4:17 am)30.38 "Hg (Oct 2, 4:17 am)
Low52 °F (Sep 28, 5:52 am)27% (Sep 27, 12:52 pm)29.63 "Hg (Sep 25, 6:52 pm)
Average66 °F66%29.99 "Hg
* Reported Sep 17 8:52 pm — Oct 2 8:52 pm, Washington DC. Weather by CustomWeather, © 2022

Note: Actual official high and low records may vary slightly from our data, if they occured in-between our weather recording intervals... More about our weather records

Washington DC Weather History for the Previous 24 Hours

Scroll right to see more
 ConditionsComfort  
Time TempWeatherWind HumidityBarometerVisibility
8:52 pm
Sun, Oct 2
55 °FLight rain. Overcast.18 mph87%30.13 "Hg10 mi
6:52 pm57 °FLight rain. Mostly cloudy.17 mph83%30.10 "Hg10 mi
6:28 pm56 °FLight rain. Cloudy.21 mph90%30.10 "Hg8 mi
6:07 pm57 °FLight rain. Fog.15 mph90%30.09 "Hg3 mi
5:32 pm57 °FLight rain. Fog.16 mph93%30.07 "Hg2 mi
4:55 pm57 °FRain. Fog.20 mph93%30.05 "Hg2 mi
4:22 pm58 °FLight rain. Fog.18 mph90%30.04 "Hg2 mi
4:05 pm58 °FRain. Fog.17 mph90%30.04 "Hg2 mi
3:33 pm58 °FFog.17 mph90%30.03 "Hg2 mi
3:23 pm57 °FLight rain. Fog.16 mph93%30.03 "Hg2 mi
2:52 pm58 °FLight rain. Fog.15 mph90%30.02 "Hg2 mi
2:42 pm57 °FLight rain. Fog.15 mph93%30.02 "Hg2 mi
2:39 pm58 °FLight rain. Fog.17 mph90%30.02 "Hg2 mi
1:52 pm58 °FOvercast.14 mph84%30.02 "Hg10 mi
1:34 pm57 °FOvercast.14 mph90%30.02 "Hg10 mi
12:52 pm57 °FLight rain. Overcast.14 mph90%30.02 "Hg7 mi
12:25 pm57 °FLight rain. Fog.13 mph90%30.02 "Hg2 mi
12:21 pm57 °FLight rain. Fog.17 mph90%30.02 "Hg2 mi
12:07 pm57 °FLight rain. Fog.14 mph93%30.02 "Hg3 mi
11:38 am58 °FRain. Fog.15 mph90%30.01 "Hg2 mi
10:57 am58 °FLight rain. Fog.16 mph90%30.00 "Hg4 mi
10:10 am59 °FLight rain. Fog.16 mph93%29.98 "Hg3 mi
9:56 am59 °FLight rain. Fog.15 mph93%29.98 "Hg2 mi
9:36 am59 °FLight rain. Fog.15 mph93%29.97 "Hg2 mi
9:22 am59 °FLight rain. Fog.15 mph93%29.96 "Hg5 mi
8:59 am59 °FLight rain. Fog.15 mph93%29.95 "Hg3 mi
7:52 am60 °FLight rain. Fog.13 mph93%29.92 "Hg3 mi
7:36 am60 °FLight rain. Fog.13 mph93%29.92 "Hg2 mi
7:05 am60 °FHeavy rain. Fog.13 mph96%29.91 "Hg2 mi
5:52 am61 °FMostly cloudy.15 mph93%29.88 "Hg7 mi
5:12 am61 °FLight rain. Fog.14 mph93%29.88 "Hg5 mi
4:52 am61 °FOvercast.15 mph93%29.87 "Hg7 mi
4:17 am61 °FFog.15 mph97%29.87 "Hg3 mi
3:28 am62 °FFog.9 mph93%29.88 "Hg4 mi
3:06 am62 °FFog.10 mph93%29.88 "Hg2 mi
1:52 am62 °FLow clouds.5 mph93%29.88 "Hg7 mi
1:10 am62 °FFog.5 mph96%29.88 "Hg3 mi
1:01 am62 °FLight rain. Fog.6 mph96%29.89 "Hg2 mi
12:38 am62 °FFog.5 mph96%29.89 "Hg3 mi
11:52 pm
Sat, Oct 1
62 °FLight rain. Fog.9 mph96%29.88 "Hg6 mi
11:39 pm62 °FFog.9 mph96%29.88 "Hg3 mi
11:19 pm62 °FLight rain. Fog.9 mph96%29.88 "Hg2 mi
10:18 pm62 °FDrizzle. Fog.10 mph93%29.87 "Hg5 mi
Weather by CustomWeather, © 2022

See weather overview